CW4525 Weather Reports


Display with metric or nautical units.
time (UTC)temp
F
wind
direction
speed
MPH
gust
MPH
rain 1hr
in
rain 24hr
in
rain mn
in
humidity
%
barometer
mb
20260504041522 40 217 3.0 7.0 0.00 0.00 0.00 61 1006.0
20260504040020 40 231 4.0 8.0 0.00 0.00 0.00 61 1005.8
20260504034520 41 232 4.0 10.0 0.00 0.00 0.00 60 1005.9
20260504033019 41 205 4.0 7.0 0.00 0.00 0.00 60 1005.7
20260504031518 41 193 2.0 5.0 0.00 0.00 0.00 58 1005.6
20260504030017 41 199 4.0 7.0 0.00 0.00 0.00 58 1005.7
20260504024519 41 228 3.0 6.0 0.00 0.00 0.00 59 1005.7
20260504023017 42 220 4.0 7.0 0.00 0.00 0.00 59 1005.6
20260504021516 42 235 3.0 7.0 0.00 0.00 0.00 57 1005.6
20260504020015 43 210 3.0 6.0 0.00 0.00 0.00 56 1005.6
20260504014515 43 202 2.0 6.0 0.00 0.01 0.00 55 1005.5
20260504013023 43 221 1.0 5.0 0.00 0.01 0.00 55 1005.5
20260504011513 43 221 2.0 5.0 0.00 0.01 0.00 54 1005.1
20260504010013 44 250 0.0 1.0 0.00 0.01 0.00 54 1005.0
20260504004515 45 277 0.0 2.0 0.00 0.03 0.00 52 1004.8
20260504003022 45 277 1.0 5.0 0.00 0.03 0.00 51 1004.6
20260504001512 46 269 2.0 6.0 0.00 0.03 0.00 50 1004.5
20260504000011 47 303 4.0 9.0 0.00 0.03 0.00 48 1004.4
20260503234511 47 285 5.0 13.0 0.00 0.05 0.00 47 1004.3
20260503233011 48 263 7.0 14.0 0.00 0.05 0.00 47 1004.1
20260503231510 48 327 6.0 11.0 0.00 0.05 0.00 47 1004.0
20260503230010 48 232 6.0 15.0 0.00 0.05 0.00 46 1003.9
20260503224516 48 273 6.0 12.0 0.00 0.07 0.00 46 1003.9
20260503223010 48 303 8.0 20.0 0.00 0.07 0.00 45 1003.6
20260503221509 49 308 9.0 19.0 0.00 0.07 0.00 44 1003.4
20260503220017 50 305 11.0 25.0 0.00 0.07 0.00 43 1003.4
20260503214510 49 269 7.0 21.0 0.00 0.09 0.00 45 1003.4
20260503213008 49 263 12.0 22.0 0.00 0.09 0.00 42 1003.2
20260503211506 49 332 8.0 24.0 0.00 0.09 0.00 43 1002.9
20260503210007 49 275 16.0 24.0 0.00 0.09 0.00 41 1002.8
20260503204506 49 317 11.0 24.0 0.00 0.12 0.00 43 1002.7
20260503203003 49 301 13.0 23.0 0.00 0.12 0.00 43 1002.6
20260503201504 49 324 10.0 21.0 0.00 0.12 0.00 44 1002.5
20260503200004 49 275 10.0 23.0 0.00 0.14 0.00 44 1002.3
20260503194502 50 360 9.0 23.0 0.00 0.14 0.00 42 1002.3
20260503193002 50 281 12.0 22.0 0.00 0.14 0.00 42 1002.3
20260503191600 49 346 11.0 25.0 0.00 0.14 0.00 45 1002.3
20260503190059 49 315 7.0 23.0 0.00 0.14 0.00 46 1002.4
20260503184616 50 281 8.0 19.0 0.00 0.18 0.00 45 1002.4
20260503183102 50 338 10.0 21.0 0.00 0.18 0.00 45 1002.3
20260503181558 49 290 10.0 23.0 0.00 0.18 0.00 49 1002.4
20260503180057 50 290 12.0 26.0 0.00 0.18 0.00 53 1002.3
20260503174553 50 333 12.0 21.0 0.00 0.22 0.00 52 1002.3
20260503173049 48 312 8.0 16.0 0.00 0.22 0.00 56 1002.5
20260503171608 48 326 12.0 25.0 0.00 0.22 0.00 54 1002.6
20260503081539 38 292 1.0 5.0 0.00 0.33 0.00 92 1004.4
20260503071552 39 319 2.0 9.0 0.00 0.33 0.00 93 1004.6
20260503054523 40 310 0.0 4.0 0.00 0.33 0.00 94 1005.7
20260503053017 41 306 1.0 5.0 0.00 0.33 0.00 94 1005.8
20260503051520 41 302 2.0 8.0 0.00 0.33 0.00 94 1005.9
20260503050015 41 307 3.0 9.0 0.00 0.33 0.00 94 1006.0
20260503044521 41 294 3.0 7.0 0.00 0.33 0.00 94 1006.2
20260503043016 41 288 3.0 7.0 0.00 0.33 0.00 94 1006.4